星链-31007 (STARLINK-31007 )

导读

STARLINK-31007是美国星链项目的卫星,于2024年1月29日发射入轨,隶属于SpaceX打造的星链星座网络。星链星座旨在为全球提供覆盖偏远地区的高速卫星互联网服务,该卫星承担着补充星座容量、提升覆盖密度的任务,进一步完善星链系统的全球通信服务能力,推动低轨卫星互联网的布局落地。

基本信息
目录编号:
58889
目录名称:
STARLINK-31007
国际标识:
2024-020P
轨道中心:
EARTH
卫星名称:
星链-31007
卫星全名:
星链-31007 (STARLINK-31007 )
卫星状态:
在轨 (已飞行956 天)
发射日期:
2024-01-29 UTC
国别 :
美国 (US)
星等 :
--
该卫星已列入 空间交会检测服务 Space Conjunction Data Service (SCDS) ,当前飞行风险评估等级: 无高风险
轨道信息
数据来源 国际轨道数据 AOE轨道数据
星历时间 2026-09-11T12:35:56+0800
13小时前
查看轨道信息
2026-09-06T00:00:00+0800
6天前
查看轨道信息
半长轴 6840.858km 6840.853km
偏心率 0.0001107 0.0001486
轨道倾角 53.159° 53.158°
近地点辐角 96.245° 92.677°
升交点赤经 177.143° 202.971°
平近点角 263.868° 331.612°
近地点 461.963km 461.699km
远地点 463.479km 463.733km
周期 93.848分钟 93.848分钟
每日圈数 15.343943 15.34396
详细信息
固有亮度:
5
最大亮度:
0.3
卫星平台:
Starlink v2.0 mini
覆盖范围:
全球
运营商:
太空探索技术公司
运营商所在国:
美国
制造商(研发单位):
太空探索技术公司
制造商所在国:
美国
使用方式:
暂无
卫星简介
星链(Starlink)计划是由太空探索技术公司(SpaceX)提出的一个巨型低轨卫星互联网星座项目,计划在2019年至2024年间在太空搭建由约1.2万颗卫星组成的“星链”网络,其中1584颗将部署在地球上空550千米处的近地轨道,并从2020年开始工作。该卫星仍在工作。
2D轨道图
3D轨道图
轨道高度分析图
轨道倾角分析图
轨道综合分析图
查看轨道综合分析图
交会数据列表
事件ID 空间交会对象 最接近时刻(TCA) 交会距离 交会风险概率(CRP) 交会风险指数(CRI) 操作
CDM_260914-031405-888906-914821
2026-09-14T
03:14:22+0000
0.696 km
远距离
5.207725E-5 中风险 0.69
CDM_260913-203505-888906-447721
2026-09-13T
20:35:43+0000
0.932 km
远距离
2.956809E-5 中风险 0.64
CDM_260914-014005-888906-914821
2026-09-14T
01:40:35+0000
1.662 km
极远距离
2.918523E-6 低风险 0.44
CDM_260905-000405-228305-888923
2026-09-05T
00:04:00+0000
2.314 km
极远距离
1.814859E-6 低风险 0.4
CDM_260913-103405-511105-888921
2026-09-13T
10:34:56+0000
2.957 km
极远距离
1.360668E-6 低风险 0.38
CDM_260914-044805-888906-914821
2026-09-14T
04:48:10+0000
2.862 km
极远距离
9.189383E-7 极低风险 0.34
与全量物体交会距离演化趋势
与全量物体交会风险概率演化趋势